Location: Unspecified
(50.7693°N, 0.0000°E)
Time: 09:39:42
(UTC+00:00)

Vanguard 1 - Pass Details

Date: 20 June 2019
Orbit: 654 x 3829 km, 34.2° (Epoch: 24 August)

Event Time Altitude Azimuth Distance (km) Brightness Sun altitude
Exits shadow 00:36:09 11° 161° (SSE) 5,959 13.5 -15.4°
Maximum altitude 00:40:48 12° 146° (SE) 5,445 13.4 -15.3°
Drops below altitude 10° 00:45:35 10° 127° (SE) 5,170 13.5 -15.2°
Sets 00:52:32 0° 101° (E) 5,416 13.9 -14.9°
